Погода в Труа-Ривьере

Канада     46°20′32″N   72°32′41″W
темп.,
°C
ветер,
м/с
пор.,
м/с
влажн.,
%
обл.,
%
осадки,
мм/ч
давл.,
гПа
погр.,
м
9 мая, вс
вс923:00+5всв2370100 0.0 101369
02:00+4зюз1176100 0.0 101310
05:00+4юз348074 0.0 101263
08:00+8зюз467711 0.0 1013410
11:00+13зюз456485 0.3 10121360
14:00+13зюз665887 1.0 10111395
17:00+14з565599 0.7 10101565
20:00+9зсз2269100 0.7 101120
10 мая, пн
пн1023:00+6сз1272100 0.0 101112
02:00+5ссв1178100 0.0 101010
05:00+4с01845 0.0 101010
08:00+8сз11712 0.0 1011270
11:00+13з33570 0.0 10111130
14:00+15зюз344827 0.0 10101420
17:00+15юз555091 0.0 10091682
20:00+10зюз3376100 0.8 101029
11 мая, вт
вт1123:00+9юз3792100 1.2 1011210
02:00+7ююз4695100 1.3 1010182
05:00+7юз479593 0.2 1011301
08:00+7зюз688663 0.3 1012505
11:00+10зюз78566 0.0 10121417
14:00+12зюз784968 0.0 10112098
17:00+10зюз68532 0.0 10111434
20:00+7з597553 0.0 1011265
12 мая, ср
ср1223:00+6зсз2590100 0.0 1012164
02:00+6с4784100 0.0 1013662
05:00+5зюз238996 0.0 1014101
08:00+8ссз596769 0.0 1016672
11:00+12с685287 0.1 10172055
14:00+14с694762 0.3 10172193
17:00+15ссз4748100 0.0 10171821
20:00+10зсз226162 0.0 101812
13 мая, чт
чт1323:00+7зсз366131 0.0 102079
02:00+6сз33635 0.0 102049
05:00+4ююз11695 0.0 102117
08:00+10зюз23605 0.0 1023289
11:00+16з474522 0.0 10221791
14:00+15юз4661100 0.0 1020271
17:00+18з695464 0.1 10182243
20:00+11с228786 1.3 101943